Location: Cluny
(50.9333°N, 112.8167°W)
Time: 08:11:44
(UTC-06:00)

Hamsat - Visible Passes

Search period start: 25 July 2016 00:00
Search period end: 04 August 2016 00:00
Orbit: 586 x 620 km, 97.6° (Epoch: 24 July)

Date Brightness Start Highest point End Pass type
(mag) Time Alt. Az. Time Alt. Az. Time Alt. Az.
30 Jul ? 04:51:23 10° ENE 04:53:04 12° E 04:54:44 10° ESE visible
31 Jul ? 05:02:41 10° NE 05:05:15 16° E 05:07:50 10° SE visible
01 Aug ? 05:14:17 10° NE 05:17:26 20° E 05:20:33 10° SE visible
